Location: Brachbach
(49.1847°N, 9.7240°E)
Time: 05:55:03
(UTC+00:00)

PCSat - Pass Details

Date: 16 March 2026
Orbit: 780 x 790 km, 67.1° (Epoch: 13 April)

Event Time Altitude Azimuth Distance (km) Brightness Sun altitude
Rises 03:21:03 0° 322° (NW) 3,295 12.6 -21.8°
Reaches altitude 10° 03:24:34 10° 345° (NNW) 2,365 12.1 -21.3°
Maximum altitude 03:27:42 15° 20° (NNE) 2,014 12.2 -20.8°
Drops below altitude 10° 03:30:50 10° 56° (NE) 2,362 13.2 -20.3°
Sets 03:34:19 0° 79° (E) 3,288 14.3 -19.8°
